Theta_e
353 352 350 350 349 347 345 344 337 328 328 334 337 343 348 347 348 347 347 349 349 346 342 341 341 341 342 343 344 345 347 350 348 346 344 345 345 343
354 353 353 353 352 350 345 343 339 334 329 337 339 345 348 352 349 348 344 346 348 344 342 340 339 339 339 340 342 345 348 345 342 340 338 338 338 339
354 353 353 354 353 352 346 342 343 341 336 338 340 343 345 346 348 349 350 347 348 342 342 340 337 337 338 339 340 341 341 339 338 337 337 336 336 336
353 354 353 354 353 351 348 345 343 342 339 336 340 341 342 344 346 345 348 353 349 347 340 338 337 335 335 334 334 334 336 334 333 333 334 334 335 335
352 353 354 353 352 349 348 345 345 345 345 343 339 341 342 342 343 343 345 346 349 349 341 337 335 334 332 330 329 328 326 328 327 327 327 328 329 331
346 353 354 354 352 350 348 347 347 347 345 343 341 338 340 342 342 340 338 342 343 349 345 341 337 335 333 331 329 328 324 320 320 320 320 319 320 322
335 339 354 355 350 349 350 350 350 348 342 342 338 338 337 337 337 339 338 339 341 344 342 340 338 336 336 333 335 332 327 324 320 317 316 315 314 316
337 341 352 348 347 341 342 345 351 348 344 342 338 337 338 337 339 338 337 335 332 341 340 338 341 337 340 339 336 331 326 325 323 320 317 316 315 315
338 341 347 355 346 352 340 340 341 341 344 345 341 341 338 339 339 337 337 336 334 338 338 334 338 336 341 344 335 329 326 325 323 322 319 316 314 314
330 334 343 351 350 351 348 346 345 346 344 349 347 344 345 345 344 343 341 339 338 339 340 332 336 334 335 338 333 331 326 323 322 321 319 316 313 312
335 345 345 350 339 331 349 348 346 345 336 333 337 341 340 336 341 345 340 336 333 336 337 336 335 335 334 335 338 327 323 321 320 320 319 315 312 311
340 345 333 344 330 323 348 344 341 344 345 341 333 333 333 333 331 343 340 336 333 332 337 336 335 335 331 334 334 328 326 318 316 316 315 313 310 319
337 339 343 327 321 317 320 345 344 345 338 341 341 339 338 338 340 339 340 338 334 333 338 338 335 334 332 331 336 333 330 327 323 318 308 308 308 317
338 340 334 318 314 312 316 320 319 332 341 340 339 338 338 338 340 341 340 340 340 338 339 339 335 333 331 330 330 336 337 339 330 328 326 317 308 309
328 322 311 308 308 314 313 314 327 340 339 338 335 334 335 337 338 337 337 336 335 335 338 338 337 335 334 331 332 334 333 332 334 334 333 327 325 320
322 323 320 319 316 317 322 323 334 337 336 334 333 333 335 335 334 332 329 330 329 329 333 334 333 334 334 335 333 331 334 331 331 330 331 333 330 327
324 328 328 328 328 328 329 329 331 332 332 332 332 332 332 332 330 330 328 329 325 325 326 330 332 332 332 331 330 331 329 326 328 328 327 328 333 334
326 326 326 327 326 325 328 327 328 329 330 331 331 330 330 329 327 327 326 327 324 323 325 329 331 330 326 317 313 317 321 323 322 321 322 322 323 331
324 326 325 322 324 323 324 323 323 327 327 326 325 326 326 326 325 327 326 325 326 327 328 328 325 324 319 319 311 309 319 315 314 315 317 317 317 322
316 324 322 320 324 322 324 324 325 325 326 327 325 328 327 324 326 326 326 325 325 325 324 322 323 323 322 321 321 309 305 309 309 309 311 315 317 314
320 319 319 319 318 319 319 320 320 319 321 323 325 325 324 324 325 323 321 312 313 319 320 322 324 319 324 322 317 312 309 307 308 309 310 312 314 319
320 320 319 319 318 319 319 318 317 317 319 319 321 320 322 322 320 320 317 317 317 318 320 320 322 322 320 320 317 313 310 310 309 309 309 310 310 310
320 320 319 321 321 322 322 320 319 320 320 320 320 320 320 317 317 317 316 316 314 313 312 312 318 318 315 315 314 312 311 312 312 311 309 308 309 308
Wind_Speed
11 11 10 10 7 7 6 8 6 4 4 3 3 4 5 5 6 5 4 6 8 10 9 9 9 7 9 11 12 11 12 14 9 8 7 7 4 6
9 11 12 10 9 6 6 7 4 4 4 5 4 3 4 3 5 5 5 7 10 10 9 9 6 6 9 11 10 8 7 6 6 5 5 6 8 8
13 13 15 13 10 8 7 5 6 6 8 3 4 5 5 6 6 6 6 5 5 10 8 6 5 6 5 4 5 7 9 8 8 9 11 11 9 7
16 15 15 11 14 11 9 10 8 8 6 10 4 3 5 5 6 4 4 4 4 6 8 7 7 7 7 6 6 7 9 9 8 8 8 8 9 10
17 17 15 14 13 10 11 10 8 7 8 6 5 4 4 3 4 2 4 5 4 6 8 9 9 10 9 9 9 9 9 9 9 10 9 9 9 8
18 16 17 17 17 14 12 13 10 9 8 7 6 4 4 4 3 3 3 3 4 3 6 8 9 11 11 12 12 13 12 12 11 11 10 9 10 11
24 25 20 20 22 18 11 12 11 10 6 7 4 3 4 2 4 3 4 2 3 5 4 4 4 4 6 11 11 14 14 14 14 13 13 12 11 10
19 23 28 20 20 21 20 16 15 11 10 8 4 5 6 4 3 5 4 2 3 3 5 3 5 5 6 6 14 16 16 16 16 15 13 14 13 10
19 18 20 17 18 16 18 18 15 16 13 11 9 8 5 6 5 4 4 4 4 3 3 3 4 5 6 7 15 17 18 16 16 14 14 13 12 10
11 14 21 18 13 16 14 14 11 11 12 11 12 7 6 6 5 5 5 3 1 2 3 3 2 4 3 5 10 16 16 16 15 13 12 11 11 10
14 42 29 15 13 16 13 14 12 13 10 12 10 11 11 10 6 4 3 2 1 4 2 3 3 3 2 4 4 9 10 13 12 12 11 11 11 9
6 5 12 9 12 12 12 9 11 11 9 7 2 4 8 7 9 4 4 4 3 1 3 2 2 3 3 2 2 2 1 6 9 10 11 11 10 4
5 3 3 9 11 10 11 7 10 8 8 7 7 5 4 5 4 4 4 3 3 3 4 3 2 4 2 5 3 0 3 0 2 2 4 8 12 10
1 3 0 5 7 7 7 8 9 8 6 6 6 4 4 4 4 4 4 5 5 4 2 3 3 3 1 3 3 3 1 4 4 4 4 6 10 12
2 2 9 9 9 5 7 10 8 5 6 6 6 4 3 3 4 3 2 4 4 3 3 4 4 3 4 4 4 4 2 1 3 3 2 5 5 5
5 3 4 7 8 7 5 3 3 3 5 5 4 4 4 4 3 3 3 3 3 2 4 3 3 3 5 5 3 3 2 3 1 2 3 3 5 7
5 2 2 3 4 3 3 3 3 3 3 3 3 3 3 3 3 3 3 2 3 2 3 4 7 8 2 2 3 4 3 3 3 4 2 2 2 4
2 2 2 3 3 2 3 3 2 3 3 2 3 3 4 4 4 3 2 3 3 4 4 2 1 3 3 4 8 1 1 1 2 3 3 3 2 3
1 2 2 3 3 2 2 2 2 2 3 3 3 3 3 2 3 3 4 3 4 4 3 2 2 2 2 3 2 10 0 1 3 1 1 1 2 3
2 3 3 4 4 4 4 3 4 5 4 4 3 4 4 3 2 3 2 3 3 2 2 2 1 2 3 3 2 1 4 1 1 1 2 3 5 6
5 4 3 3 4 4 4 4 4 4 3 3 4 3 4 3 3 4 4 4 3 1 1 3 1 1 2 3 2 2 1 2 1 0 2 2 2 2
5 5 4 4 4 4 3 4 4 3 3 3 3 4 4 4 5 5 4 4 3 2 2 3 2 2 1 1 1 3 2 2 2 2 5 4 1 2
5 5 4 4 4 4 4 4 4 4 4 4 4 3 4 3 4 4 4 3 5 4 2 2 1 3 3 3 2 1 2 3 2 1 2 7 5 5
Wind_Direction
211 212 214 226 211 197 197 210 219 226 250 249 237 245 229 210 209 203 212 231 251 234 230 224 229 240 254 251 248 248 248 247 171 151 191 205 204 239
220 211 217 220 213 208 187 198 161 205 252 192 235 247 241 269 244 214 223 267 234 228 222 220 230 250 259 260 252 237 197 180 197 188 175 202 223 232
225 218 223 214 216 211 185 181 187 182 234 251 232 236 233 226 247 225 205 192 225 245 208 208 226 250 257 245 224 208 196 191 187 194 206 216 223 231
217 219 225 215 214 200 189 194 196 200 206 248 252 255 226 242 237 215 224 214 233 231 201 201 210 216 226 208 216 236 211 192 202 222 233 242 238 239
226 216 213 215 215 201 197 192 195 198 205 217 231 212 240 233 251 219 212 233 235 214 201 204 211 207 212 210 207 224 244 227 210 209 219 231 243 264
275 236 217 212 214 207 208 209 196 189 194 212 231 235 220 251 177 170 244 233 239 216 204 205 197 216 217 219 222 219 222 228 226 223 218 215 231 248
260 265 244 213 206 204 204 210 199 198 174 192 198 187 221 220 196 195 200 220 255 208 217 216 198 208 233 238 242 229 224 227 227 226 227 220 211 233
252 261 244 210 205 196 204 205 198 191 198 196 186 195 217 209 191 185 184 181 272 232 176 245 179 220 229 220 228 226 223 224 224 224 228 232 228 222
213 238 247 226 208 204 204 204 201 198 194 189 195 200 182 197 180 179 185 187 211 264 141 230 172 230 229 237 232 224 224 221 221 219 219 220 222 219
298 242 253 226 204 198 196 206 212 215 209 199 193 178 180 187 161 171 189 218 302 271 147 215 229 247 246 245 230 228 224 221 213 214 212 207 209 212
211 249 222 215 201 203 194 197 208 222 206 191 165 160 177 171 168 146 182 163 223 260 238 198 240 249 264 264 257 242 224 209 195 204 204 201 202 201
242 214 199 194 213 202 203 193 203 207 191 158 147 138 172 161 148 158 142 190 172 348 8 339 295 197 300 303 12 356 145 213 205 203 198 193 179 193
262 246 226 212 212 201 204 207 211 172 193 170 169 161 167 175 170 168 169 138 157 229 208 111 337 339 323 318 323 338 176 136 207 219 221 202 188 197
284 241 151 146 162 186 178 190 164 136 147 147 150 163 168 165 166 172 166 150 147 191 249 145 210 168 283 295 284 319 261 238 193 213 195 198 211 212
351 45 123 108 116 113 147 145 143 138 151 149 151 152 158 156 143 164 137 143 138 132 132 149 171 177 209 232 261 251 310 299 231 243 192 184 210 202
100 89 107 95 77 95 80 53 85 117 136 146 161 148 138 157 174 138 165 175 149 188 193 221 217 236 254 252 228 261 225 262 287 266 265 215 193 200
120 114 94 88 98 94 95 99 94 94 112 129 144 166 173 169 138 146 157 173 157 187 222 221 216 223 224 241 212 222 264 262 277 320 323 281 214 217
55 91 81 93 105 120 123 124 138 144 145 142 143 152 159 147 149 158 149 190 197 223 232 239 216 145 144 79 38 282 262 331 17 353 346 318 299 2
321 142 126 140 135 130 128 119 148 185 119 131 150 156 134 146 160 175 193 191 232 241 225 172 166 157 171 223 126 29 88 336 327 349 19 294 277 303
218 106 103 96 85 79 83 78 81 78 87 120 106 116 124 145 121 91 98 135 118 95 61 12 156 170 189 204 159 135 358 177 50 338 324 315 268 134
103 105 111 98 97 104 108 96 104 103 112 139 106 112 141 112 113 123 112 93 99 131 97 74 41 334 105 92 130 158 231 2 306 222 292 267 281 316
133 136 148 143 143 144 138 130 111 125 124 118 142 151 126 118 121 130 139 139 161 115 110 118 60 45 25 241 284 144 180 223 240 251 254 222 209 294
141 143 147 161 176 168 159 166 165 168 172 184 177 161 144 137 167 165 175 149 123 117 118 93 69 39 35 13 356 145 201 210 209 244 243 211 200 230